This is the latest recevied weather packets stored in our database for station/object PA3DZX-13. If no packets are shown the sender has not sent any weather packets the latest 10 day(s).
| Time | Temp. | Humidity | Pressure | Rain* | Wind** | Luminosity | Snow |
|---|---|---|---|---|---|---|---|
| 1788022277 | 17.78° C | 85% | 1009.2 hPa | 0 mm | - | - | - |
| 1788021378 | 17.78° C | 85% | 1009.3 hPa | 0 mm | - | - | - |
| 1788020477 | 17.78° C | 80% | 1009.6 hPa | 0.25 mm | - | - | - |
| 1788019577 | 20° C | 73% | 1009.2 hPa | 0 mm | - | - | - |
| 1788018676 | 20° C | 66% | 1009.3 hPa | 0 mm | - | - | - |
| 1788017777 | 20.56° C | 58% | 1009.3 hPa | 0 mm | - | - | - |
| 1788016876 | 21.67° C | 57% | 1009.3 hPa | 0 mm | - | - | - |
| 1788015976 | 21.67° C | 56% | 1009.4 hPa | 3.56 mm | - | - | - |
| 1788015075 | 21.67° C | 56% | 1009.5 hPa | 5.59 mm | - | - | - |
| 1788014175 | 21.67° C | 57% | 1009.5 hPa | 0 mm | - | - | - |
| 1788013274 | 21.67° C | 55% | 1009.6 hPa | 1.02 mm | - | - | - |
| 1788012375 | 21.67° C | 55% | 1009.7 hPa | 0 mm | - | - | - |
| 1788011474 | 22.78° C | 54% | 1009.8 hPa | 0 mm | - | - | - |
| 1788010574 | 22.78° C | 54% | 1009.8 hPa | 0.51 mm | - | - | - |
| 1788009673 | 21.67° C | 55% | 1009.8 hPa | 0 mm | - | - | - |
| 1788008773 | 21.67° C | 54% | 1009.8 hPa | 0.25 mm | - | - | - |
| 1788007872 | 22.78° C | 54% | 1010 hPa | 0 mm | - | - | - |
| 1788006972 | 22.78° C | 53% | 1010 hPa | 0 mm | - | - | - |
| 1788006072 | 21.67° C | 56% | 1010.1 hPa | 3.81 mm | - | - | - |
| 1788005172 | 22.78° C | 54% | 1010 hPa | 1.78 mm | - | - | - |
| 1788004271 | 22.78° C | 53% | 1010 hPa | 1.02 mm | - | - | - |
| 1788003371 | 21.67° C | 55% | 1010.2 hPa | 1.52 mm | - | - | - |
| 1788002470 | 21.67° C | 57% | 1010.3 hPa | 1.78 mm | - | - | - |
| 1788001576 | 21.67° C | 57% | 1010.3 hPa | 0 mm | - | - | - |
| 1788000669 | 21.67° C | 56% | 1010.4 hPa | 0 mm | - | - | - |
* Rain latest hour (hover to see other rain measurements)
** Current wind speed in m/s (hover to see current wind gust speed)